When you browse on this site, cookies collect data to enhance your experience and personalize the content and advertising you see.
Visit our Privacy Policy to learn more. By continuing to use the site, you agree to this use of cookies and data.
  • în România
  • Lista ţărilor
  • Pe 7 zile
  • Temperatura apei
  • Hartă satelitară
  • Meteo pe hartă
  • Widget-uri
  • user-avatar
    Intrare

    Meteo pe oră la Lipiga

    Astăzi, 16 Ianuarie, Miercuri

    Timp Temperatura Precipitaţii Vânt Presiune Umiditate
    00:00 -9°C° 0 mm 4 m/s 729 mmHg 89%
    01:00 -9°C° 0 mm 3 m/s 730 mmHg 90%
    02:00 -9°C° 0 mm 3 m/s 730 mmHg 90%
    03:00 -9°C° 0 mm 3 m/s 730 mmHg 90%
    04:00 -9°C° 0 mm 3 m/s 730 mmHg 90%
    05:00 -10°C° 0 mm 3 m/s 731 mmHg 90%
    06:00 -10°C° 0 mm 3 m/s 731 mmHg 91%
    07:00 -10°C° 0 mm 3 m/s 731 mmHg 92%
    08:00 -10°C° 0 mm 2 m/s 731 mmHg 92%
    09:00 -10°C° 0 mm 3 m/s 732 mmHg 91%
    10:00 -10°C° 0 mm 3 m/s 732 mmHg 90%
    11:00 -9°C° 0 mm 3 m/s 732 mmHg 89%
    12:00 -9°C° 0 mm 3 m/s 732 mmHg 90%
    13:00 -9°C° 0 mm 3 m/s 732 mmHg 90%
    14:00 -8°C° 0 mm 2 m/s 732 mmHg 91%
    15:00 -8°C° 0 mm 2 m/s 733 mmHg 92%
    16:00 -8°C° 0 mm 2 m/s 733 mmHg 92%
    17:00 -8°C° 0 mm 2 m/s 733 mmHg 93%
    18:00 -9°C° 0 mm 3 m/s 734 mmHg 93%
    19:00 -9°C° 0 mm 3 m/s 734 mmHg 93%
    20:00 -9°C° 0 mm 3 m/s 734 mmHg 93%
    21:00 -9°C° 0 mm 3 m/s 735 mmHg 92%
    22:00 -9°C° 0 mm 3 m/s 735 mmHg 92%
    23:00 -8°C° 0 mm 3 m/s 735 mmHg 91%

    Mâine, 17 Ianuarie, Joi

    Timp Temperatura Precipitaţii Vânt Presiune Umiditate
    00:00 -9°C° 0 mm 3 m/s 736 mmHg 91%
    01:00 -9°C° 0 mm 3 m/s 736 mmHg 90%
    02:00 -10°C° 0 mm 3 m/s 736 mmHg 90%
    03:00 -10°C° 0 mm 3 m/s 736 mmHg 91%
    04:00 -12°C° 0 mm 3 m/s 736 mmHg 92%
    05:00 -12°C° 0 mm 2 m/s 736 mmHg 93%
    06:00 -13°C° 0 mm 3 m/s 736 mmHg 93%
    07:00 -12°C° 0 mm 4 m/s 736 mmHg 92%
    08:00 -11°C° 0 mm 4 m/s 735 mmHg 92%
    09:00 -11°C° 0.4 mm 5 m/s 735 mmHg 92%
    10:00 -10°C° 0.4 mm 5 m/s 734 mmHg 91%
    11:00 -8°C° 0.4 mm 5 m/s 734 mmHg 91%
    12:00 -7°C° 0.5 mm 5 m/s 733 mmHg 90%
    13:00 -6°C° 0.5 mm 5 m/s 732 mmHg 89%
    14:00 -4°C° 0.5 mm 5 m/s 732 mmHg 88%
    15:00 -4°C° 0.2 mm 6 m/s 731 mmHg 88%
    16:00 -3°C° 0.2 mm 6 m/s 730 mmHg 87%
    17:00 -2°C° 0.2 mm 6 m/s 730 mmHg 86%
    18:00 -2°C° 0.5 mm 7 m/s 729 mmHg 86%
    19:00 -2°C° 0.5 mm 7 m/s 729 mmHg 85%
    20:00 -1°C° 0.5 mm 7 m/s 728 mmHg 85%
    21:00 -1°C° 0.1 mm 7 m/s 728 mmHg 85%
    22:00 -1°C° 0.1 mm 7 m/s 728 mmHg 84%
    23:00 -1°C° 0.1 mm 6 m/s 728 mmHg 83%

    Poimâine, 18 Ianuarie, Vineri

    Timp Temperatura Precipitaţii Vânt Presiune Umiditate
    00:00 -2°C° 0 mm 6 m/s 729 mmHg 83%
    01:00 -2°C° 0 mm 6 m/s 729 mmHg 82%
    02:00 -2°C° 0 mm 6 m/s 729 mmHg 81%
    03:00 -2°C° 0 mm 6 m/s 729 mmHg 81%
    04:00 -2°C° 0 mm 6 m/s 729 mmHg 81%
    05:00 -2°C° 0 mm 7 m/s 729 mmHg 81%
    06:00 -2°C° 0 mm 7 m/s 729 mmHg 81%
    07:00 -2°C° 0 mm 7 m/s 730 mmHg 81%
    08:00 -2°C° 0 mm 7 m/s 730 mmHg 81%
    09:00 -2°C° 0 mm 7 m/s 730 mmHg 82%
    10:00 -2°C° 0 mm 6 m/s 731 mmHg 83%
    11:00 -2°C° 0 mm 6 m/s 731 mmHg 84%
    12:00 -2°C° 0.1 mm 6 m/s 731 mmHg 86%
    13:00 -1°C° 0.1 mm 5 m/s 731 mmHg 88%
    14:00 -1°C° 0.1 mm 5 m/s 731 mmHg 90%
    15:00 -1°C° 0.5 mm 5 m/s 731 mmHg 90%
    16:00 -2°C° 0.5 mm 5 m/s 731 mmHg 90%
    17:00 -2°C° 0.5 mm 5 m/s 732 mmHg 91%
    18:00 -4°C° 0.4 mm 4 m/s 732 mmHg 91%
    19:00 -7°C° 0.4 mm 4 m/s 733 mmHg 91%
    20:00 -8°C° 0.4 mm 3 m/s 733 mmHg 91%
    21:00 -8°C° 0.1 mm 3 m/s 734 mmHg 90%
    22:00 -9°C° 0.1 mm 3 m/s 734 mmHg 89%
    23:00 -9°C° 0.1 mm 3 m/s 735 mmHg 89%

    19 Ianuarie, Sâmbătă

    Timp Temperatura Precipitaţii Vânt Presiune Umiditate
    00:00 -10°C° 0 mm 4 m/s 735 mmHg 88%
    01:00 -11°C° 0 mm 4 m/s 736 mmHg 87%
    02:00 -11°C° 0 mm 4 m/s 737 mmHg 86%
    03:00 -11°C° 0 mm 4 m/s 737 mmHg 86%
    04:00 -11°C° 0 mm 4 m/s 737 mmHg 86%
    05:00 -11°C° 0 mm 4 m/s 738 mmHg 86%
    06:00 -10°C° 0 mm 4 m/s 738 mmHg 86%
    07:00 -10°C° 0 mm 4 m/s 738 mmHg 87%
    08:00 -10°C° 0 mm 4 m/s 739 mmHg 87%
    09:00 -9°C° 0 mm 4 m/s 739 mmHg 85%
    10:00 -9°C° 0 mm 4 m/s 739 mmHg 84%
    11:00 -8°C° 0 mm 5 m/s 740 mmHg 82%
    12:00 -8°C° 0.1 mm 5 m/s 740 mmHg 82%
    13:00 -7°C° 0.1 mm 4 m/s 740 mmHg 82%
    14:00 -7°C° 0.1 mm 4 m/s 741 mmHg 82%
    15:00 -7°C° 0.1 mm 4 m/s 741 mmHg 83%
    16:00 -7°C° 0.1 mm 4 m/s 741 mmHg 85%
    17:00 -8°C° 0.1 mm 4 m/s 741 mmHg 86%
    18:00 -8°C° 0 mm 4 m/s 742 mmHg 86%
    19:00 -8°C° 0 mm 4 m/s 742 mmHg 85%
    20:00 -8°C° 0 mm 4 m/s 742 mmHg 85%
    21:00 -8°C° 0 mm 4 m/s 742 mmHg 85%
    22:00 -8°C° 0 mm 4 m/s 742 mmHg 85%
    23:00 -8°C° 0 mm 4 m/s 742 mmHg 85%

    20 Ianuarie, Duminică

    Timp Temperatura Precipitaţii Vânt Presiune Umiditate
    00:00 -8°C° 0 mm 4 m/s 743 mmHg 86%
    01:00 -9°C° 0 mm 4 m/s 743 mmHg 87%
    02:00 -9°C° 0 mm 4 m/s 743 mmHg 88%
    03:00 -9°C° 0 mm 4 m/s 743 mmHg 89%
    04:00 -9°C° 0 mm 4 m/s 743 mmHg 89%
    05:00 -8°C° 0 mm 3 m/s 743 mmHg 89%
    06:00 -8°C° 0 mm 3 m/s 743 mmHg 89%
    07:00 -8°C° 0 mm 3 m/s 743 mmHg 90%
    08:00 -8°C° 0 mm 3 m/s 743 mmHg 90%
    09:00 -8°C° 0 mm 3 m/s 743 mmHg 90%
    10:00 -8°C° 0 mm 3 m/s 744 mmHg 90%
    11:00 -7°C° 0 mm 3 m/s 744 mmHg 90%
    12:00 -7°C° 0 mm 3 m/s 744 mmHg 89%
    13:00 -7°C° 0 mm 3 m/s 743 mmHg 87%
    14:00 -7°C° 0 mm 3 m/s 743 mmHg 86%
    15:00 -6°C° 0.1 mm 2 m/s 743 mmHg 88%
    16:00 -7°C° 0.1 mm 2 m/s 744 mmHg 90%
    17:00 -7°C° 0.1 mm 2 m/s 744 mmHg 92%
    18:00 -8°C° 0 mm 2 m/s 744 mmHg 93%
    19:00 -8°C° 0 mm 2 m/s 744 mmHg 93%
    20:00 -9°C° 0 mm 2 m/s 744 mmHg 94%
    21:00 -10°C° 0 mm 2 m/s 744 mmHg 94%
    22:00 -12°C° 0 mm 2 m/s 745 mmHg 95%
    23:00 -13°C° 0 mm 2 m/s 745 mmHg 96%

    21 Ianuarie, Luni

    Timp Temperatura Precipitaţii Vânt Presiune Umiditate
    00:00 -12°C° 0 mm 2 m/s 745 mmHg 96%
    01:00 -12°C° 0 mm 2 m/s 745 mmHg 96%
    02:00 -10°C° 0 mm 1 m/s 746 mmHg 96%
    03:00 -10°C° 0 mm 1 m/s 746 mmHg 96%
    04:00 -10°C° 0 mm 1 m/s 746 mmHg 96%
    05:00 -10°C° 0 mm 1 m/s 746 mmHg 96%
    06:00 -10°C° 0 mm 1 m/s 746 mmHg 96%
    07:00 -11°C° 0 mm 1 m/s 747 mmHg 96%
    08:00 -11°C° 0 mm 1 m/s 747 mmHg 96%
    09:00 -11°C° 0 mm 1 m/s 747 mmHg 96%
    10:00 -10°C° 0 mm 1 m/s 748 mmHg 95%
    11:00 -9°C° 0 mm 1 m/s 748 mmHg 95%
    12:00 -10°C° 0 mm 2 m/s 748 mmHg 94%
    13:00 -12°C° 0 mm 2 m/s 749 mmHg 93%
    14:00 -12°C° 0 mm 2 m/s 749 mmHg 92%
    15:00 -13°C° 0 mm 2 m/s 749 mmHg 93%
    16:00 -15°C° 0 mm 2 m/s 749 mmHg 94%
    17:00 -16°C° 0 mm 2 m/s 750 mmHg 95%
    18:00 -17°C° 0 mm 2 m/s 750 mmHg 95%
    19:00 -18°C° 0 mm 2 m/s 751 mmHg 96%
    20:00 -18°C° 0 mm 2 m/s 751 mmHg 96%
    21:00 -19°C° 0 mm 2 m/s 751 mmHg 97%
    22:00 -20°C° 0 mm 2 m/s 752 mmHg 97%
    23:00 -20°C° 0 mm 2 m/s 752 mmHg 98%
    Arată mai mult